Погода в Новоюрьеве

Россия / Тамбовская область     53°21′42″N   40°53′27″E
темп.,
°C
ветер,
м/с
пор.,
м/с
влажн.,
%
обл.,
%
осадки,
мм/ч
давл.,
гПа
погр.,
м
9 марта, вт
вт900:00−13зсз23900 0.0 100920
03:00−15зсз23940 0.0 101020
06:00−13ссз359655 0.0 1011108
09:00−13ссз469377 0.1 1012240
12:00−12ссз469382 0.0 1014288
15:00−11сз479189 0.0 1015513
18:00−14сз4895100 0.0 1016168
21:00−17сз499663 0.0 1019161
10 марта, ср
ср1000:00−18сз469855 0.0 1020120
03:00−21сз469953 0.0 1021102
06:00−23сз489951 0.0 1023142
09:00−22сз589663 0.0 1025257
12:00−20сз589369 0.0 1026345
15:00−18сз579076 0.0 1027510
18:00−21сз349798 0.0 102881
21:00−22ссз349983 0.0 103049
11 марта, чт
чт1100:00−24ссз34960 0.0 103132
03:00−24ссз23920 0.0 103220
06:00−24зсз34930 0.0 103232
09:00−22сз35959 0.0 1034177
12:00−18сз34934 0.0 1033249
15:00−15сз249022 0.0 1033311
18:00−19зсз23965 0.0 103320
21:00−20сз23992 0.0 103420
12 марта, пт
пт1200:00−21сз12970 0.0 103520
03:00−22зюз12950 0.0 103520
06:00−22зюз12950 0.0 103520
09:00−18юз22900 0.0 103667
12:00−14ююз23830 0.0 1035237
15:00−13ю35850 0.0 1034254
18:00−16ю34880 0.0 103443
21:00−18ю45850 0.0 103472
13 марта, сб
сб1300:00−17ю48870 0.0 1034126
03:00−17ю510870 0.0 1033175
06:00−16ююв5138615 0.0 1032201
09:00−12ю6138258 0.0 1031404
12:00−8ю81479100 0.0 1030670
15:00−6ююз81477100 0.0 1028932
18:00−7ююз61477100 0.0 1026616
21:00−7ююз6147899 0.0 1026371